TimeAEST,TemperatureF,Dew PointF,Humidity,Sea Level PressureIn,VisibilityMPH,Wind Direction,Wind SpeedMPH,Gust SpeedMPH,PrecipitationIn,Events,Conditions,WindDirDegrees,DateUTC
12:00 AM,68,65,87,30.06,,SE,10.4,,,,Overcast,140,2013-07-28 14:00:00
12:00 AM,68.0,64.4,88,30.06,5.0,SE,10.4,-,N/A,Rain,Light Rain Showers,140,2013-07-28 14:00:00
12:30 AM,68.0,64.4,88,30.06,5.0,SSE,11.5,-,N/A,Rain,Light Rain Showers,150,2013-07-28 14:30:00
1:00 AM,68,64,82,30.06,,South,10.4,,,,,180,2013-07-28 15:00:00
1:00 AM,68.0,64.4,88,30.04,6.2,South,10.4,-,N/A,,Mostly Cloudy,180,2013-07-28 15:00:00
1:30 AM,68.0,62.6,83,30.04,6.2,South,10.4,-,N/A,,Mostly Cloudy,180,2013-07-28 15:30:00
2:00 AM,68.0,62.6,83,30.04,6.2,South,9.2,-,N/A,,Mostly Cloudy,170,2013-07-28 16:00:00
2:30 AM,68.0,62.6,83,30.04,6.2,South,11.5,-,N/A,,Mostly Cloudy,180,2013-07-28 16:30:00
3:00 AM,68,62,77,30.04,,South,8.1,,,,,170,2013-07-28 17:00:00
3:00 AM,68.0,62.6,83,30.04,6.2,South,8.1,-,N/A,,Scattered Clouds,170,2013-07-28 17:00:00
3:30 AM,68.0,62.6,83,30.01,6.2,South,11.5,-,N/A,,Partly Cloudy,190,2013-07-28 17:30:00
4:00 AM,68,62,76,30.04,,South,11.5,,,,,170,2013-07-28 18:00:00
4:00 AM,68.0,62.6,83,30.04,6.2,South,11.5,-,N/A,,Scattered Clouds,170,2013-07-28 18:00:00
4:30 AM,68.0,62.6,83,30.04,6.2,South,15.0,-,N/A,,Scattered Clouds,190,2013-07-28 18:30:00
5:00 AM,68.0,60.8,78,30.01,6.2,South,13.8,-,N/A,,Mostly Cloudy,190,2013-07-28 19:00:00
5:30 AM,68.0,60.8,78,30.04,6.2,SSE,10.4,-,N/A,,Scattered Clouds,160,2013-07-28 19:30:00
6:00 AM,68,60,67,30.04,19,South,12.7,,,,Partly Cloudy,190,2013-07-28 20:00:00
6:00 AM,68.0,59.0,73,30.04,6.2,South,12.7,-,N/A,,Partly Cloudy,190,2013-07-28 20:00:00
6:30 AM,68.0,60.8,78,30.04,6.2,South,13.8,-,N/A,,Partly Cloudy,180,2013-07-28 20:30:00
7:00 AM,67,60,73,30.05,,South,12.7,,,,,180,2013-07-28 21:00:00
7:00 AM,68.0,60.8,78,30.04,6.2,South,12.7,-,N/A,,Partly Cloudy,180,2013-07-28 21:00:00
7:30 AM,68.0,60.8,78,30.04,6.2,South,11.5,-,N/A,,Partly Cloudy,170,2013-07-28 21:30:00
8:00 AM,69.8,60.8,73,30.04,6.2,South,11.5,-,N/A,,Partly Cloudy,170,2013-07-28 22:00:00
8:30 AM,71.6,60.8,69,30.06,6.2,South,12.7,-,N/A,,Partly Cloudy,170,2013-07-28 22:30:00
9:00 AM,72,61,60,30.07,19,South,15.0,,,,Partly Cloudy,170,2013-07-28 23:00:00
9:00 AM,71.6,60.8,69,30.06,6.2,South,15.0,-,N/A,,Partly Cloudy,170,2013-07-28 23:00:00
9:30 AM,73.4,60.8,65,30.06,6.2,South,15.0,-,N/A,,Partly Cloudy,170,2013-07-28 23:30:00
10:00 AM,75,61,52,30.07,,SSE,16.1,,,,,160,2013-07-29 00:00:00
10:00 AM,75.2,60.8,61,30.06,6.2,SSE,16.1,-,N/A,,Partly Cloudy,160,2013-07-29 00:00:00
10:30 AM,77.0,60.8,57,30.06,6.2,SSE,16.1,-,N/A,,Partly Cloudy,160,2013-07-29 00:30:00
11:00 AM,77.0,60.8,57,30.04,6.2,South,13.8,-,N/A,,Partly Cloudy,170,2013-07-29 01:00:00
11:30 AM,78.8,60.8,54,30.04,6.2,SE,15.0,-,N/A,,Partly Cloudy,130,2013-07-29 01:30:00
12:00 PM,80,59,38,30.03,19,SE,17.3,,,,Partly Cloudy,140,2013-07-29 02:00:00
12:00 PM,78.8,59.0,51,30.01,6.2,SE,17.3,-,N/A,,Partly Cloudy,140,2013-07-29 02:00:00
12:30 PM,78.8,59.0,51,30.01,6.2,SE,16.1,-,N/A,,Partly Cloudy,130,2013-07-29 02:30:00
1:00 PM,78,58,40,30.00,,SE,17.3,,,,,130,2013-07-29 03:00:00
1:00 PM,78.8,59.0,51,29.98,6.2,SE,17.3,-,N/A,,Partly Cloudy,130,2013-07-29 03:00:00
1:30 PM,78.8,59.0,51,29.98,6.2,SE,15.0,-,N/A,,Partly Cloudy,130,2013-07-29 03:30:00
2:00 PM,80.6,60.8,51,29.95,6.2,ESE,17.3,-,N/A,,Partly Cloudy,120,2013-07-29 04:00:00
2:30 PM,78.8,59.0,51,29.95,6.2,SE,19.6,-,N/A,,Partly Cloudy,130,2013-07-29 04:30:00
3:00 PM,78,59,42,29.95,19,SE,19.6,,,,Partly Cloudy,140,2013-07-29 05:00:00
3:00 PM,78.8,59.0,51,29.95,6.2,SE,19.6,-,N/A,,Partly Cloudy,140,2013-07-29 05:00:00
3:30 PM,77.0,59.0,54,29.95,6.2,SE,19.6,-,N/A,,Partly Cloudy,130,2013-07-29 05:30:00
4:00 PM,77,59,44,29.95,,SE,19.6,,,,,130,2013-07-29 06:00:00
4:00 PM,77.0,59.0,54,29.95,6.2,SE,19.6,-,N/A,,Partly Cloudy,130,2013-07-29 06:00:00
4:30 PM,75.2,60.8,61,29.95,6.2,SE,17.3,-,N/A,,Partly Cloudy,140,2013-07-29 06:30:00
5:00 PM,75.2,60.8,61,29.95,6.2,SE,17.3,-,N/A,,Partly Cloudy,140,2013-07-29 07:00:00
5:30 PM,73.4,60.8,65,29.95,6.2,SE,16.1,-,N/A,,Partly Cloudy,140,2013-07-29 07:30:00
6:00 PM,71,61,63,29.96,,SSE,13.8,,,,,160,2013-07-29 08:00:00
6:00 PM,71.6,60.8,69,29.95,6.2,SSE,13.8,-,N/A,,Partly Cloudy,160,2013-07-29 08:00:00
6:30 PM,69.8,60.8,73,29.95,6.2,SSE,10.4,-,N/A,,Partly Cloudy,160,2013-07-29 08:30:00
7:00 PM,70,62,67,29.99,,South,10.4,,,,,180,2013-07-29 09:00:00
7:00 PM,69.8,60.8,73,29.98,6.2,South,10.4,-,N/A,,Partly Cloudy,180,2013-07-29 09:00:00
7:30 PM,69.8,60.8,73,29.98,6.2,South,9.2,-,N/A,,Partly Cloudy,170,2013-07-29 09:30:00
8:00 PM,69.8,60.8,73,30.01,6.2,South,8.1,-,N/A,,Partly Cloudy,170,2013-07-29 10:00:00
8:30 PM,68.0,60.8,78,30.01,6.2,South,9.2,-,N/A,,Partly Cloudy,170,2013-07-29 10:30:00
9:00 PM,69,61,69,30.03,,South,11.5,,,,,170,2013-07-29 11:00:00
9:00 PM,68.0,60.8,78,30.01,6.2,South,11.5,-,N/A,,Partly Cloudy,170,2013-07-29 11:00:00
9:30 PM,68.0,60.8,78,30.01,6.2,South,11.5,-,N/A,,Partly Cloudy,180,2013-07-29 11:30:00
10:00 PM,68,60,69,30.02,,South,11.5,,,,,170,2013-07-29 12:00:00
10:00 PM,68.0,60.8,78,30.01,-9999.0,South,11.5,-,N/A,,Clear,170,2013-07-29 12:00:00
10:30 PM,69.8,59.0,68,30.01,-9999.0,South,12.7,-,N/A,,Clear,170,2013-07-29 12:30:00
11:00 PM,68.0,59.0,73,30.01,6.2,SSE,12.7,-,N/A,,Partly Cloudy,160,2013-07-29 13:00:00
11:30 PM,68.0,60.8,78,30.01,6.2,SSE,13.8,-,N/A,,Partly Cloudy,160,2013-07-29 13:30:00